GW2771 Weather Reports


Display with metric or nautical units.
time (UTC)temp
F
wind
direction
speed
MPH
gust
MPH
rain 1hr
in
rain 24hr
in
rain mn
in
humidity
%
barometer
mb
20260510225508 82 20 4.0 22.0 0.00 0.00 0.00 20 1023.7
20260510225015 82 89 6.0 22.0 0.00 0.00 0.00 20 1023.6
20260510224553 83 73 7.0 14.0 0.00 0.00 0.00 21 1023.7
20260510224003 83 110 5.0 19.0 0.00 0.00 0.00 20 1023.6
20260510223505 83 86 3.0 19.0 0.00 0.00 0.00 20 1023.7
20260510223016 85 85 3.0 20.0 0.00 0.00 0.00 20 1023.6
20260510222522 85 82 5.0 20.0 0.00 0.00 0.00 18 1023.5
20260510222029 86 62 5.0 14.0 0.00 0.00 0.00 18 1023.3
20260510221514 85 137 4.0 13.0 0.00 0.00 0.00 17 1023.3
20260510221014 85 97 3.0 17.0 0.00 0.00 0.00 17 1023.3
20260510220519 86 119 5.0 17.0 0.00 0.00 0.00 16 1023.4
20260510220055 86 241 3.0 10.0 0.00 0.00 0.00 15 1023.2
20260510215505 86 77 1.0 5.0 0.00 0.00 0.00 13 1023.4
20260510215009 86 278 2.0 7.0 0.00 0.00 0.00 11 1023.5
20260510214521 86 162 2.0 7.0 0.00 0.00 0.00 11 1023.6
20260510214025 86 121 3.0 7.0 0.00 0.00 0.00 14 1023.7
20260510213535 86 18 2.0 12.0 0.00 0.00 0.00 8 1023.8
20260510213016 86 69 2.0 12.0 0.00 0.00 0.00 10 1023.8
20260510212523 85 37 3.0 12.0 0.00 0.00 0.00 10 1023.8
20260510212034 85 326 4.0 12.0 0.00 0.00 0.00 10 1023.9
20260510211543 87 256 2.0 8.0 0.00 0.00 0.00 10 1023.8
20260510211050 87 96 3.0 8.0 0.00 0.00 0.00 9 1023.9
20260510210556 86 138 3.0 8.0 0.00 0.00 0.00 8 1023.7
20260510210013 86 147 3.0 8.0 0.00 0.00 0.00 8 1023.9
20260510205525 86 149 3.0 9.0 0.00 0.00 0.00 7 1024.0
20260510205025 86 179 2.0 9.0 0.00 0.00 0.00 7 1024.1
20260510204537 86 343 3.0 9.0 0.00 0.00 0.00 7 1024.1
20260510204047 87 10 0.0 9.0 0.00 0.00 0.00 7 1024.2
20260510203549 87 89 3.0 5.0 0.00 0.00 0.00 7 1024.3
20260510203003 86 143 2.0 6.0 0.00 0.00 0.00 9 1024.3
20260510202514 85 10 2.0 9.0 0.00 0.00 0.00 10 1024.3
20260510202017 85 320 2.0 11.0 0.00 0.00 0.00 8 1024.5
20260510201539 85 302 4.0 11.0 0.00 0.00 0.00 8 1024.4
20260510201045 84 172 0.0 7.0 0.00 0.00 0.00 10 1024.4
20260510200549 85 314 3.0 7.0 0.00 0.00 0.00 10 1024.3
20260510200057 86 21 2.0 6.0 0.00 0.00 0.00 10 1024.4
20260510195557 85 64 0.0 6.0 0.00 0.00 0.00 11 1024.3
20260510195503 85 196 0.0 6.0 0.00 0.00 0.00 11 1024.3
20260510195002 84 31 0.0 7.0 0.00 0.00 0.00 10 1024.4
20260510194513 83 225 2.0 11.0 0.00 0.00 0.00 10 1024.4
20260510194017 83 277 5.0 11.0 0.00 0.00 0.00 10 1024.5
20260510193530 83 211 7.0 12.0 0.00 0.00 0.00 10 1024.5
20260510193005 83 194 3.0 9.0 0.00 0.00 0.00 11 1024.5
20260510192515 82 117 4.0 7.0 0.00 0.00 0.00 10 1024.6
20260510192023 81 152 2.0 6.0 0.00 0.00 0.00 11 1024.5
20260510191541 80 21 0.0 6.0 0.00 0.00 0.00 12 1024.6
20260510191052 80 307 2.0 8.0 0.00 0.00 0.00 12 1024.6
20260510190555 80 339 2.0 10.0 0.00 0.00 0.00 12 1024.7
20260510190036 81 328 5.0 10.0 0.00 0.00 0.00 12 1024.8
20260510185537 82 337 0.0 5.0 0.00 0.00 0.00 12 1024.7
20260510185047 83 31 2.0 6.0 0.00 0.00 0.00 12 1024.8
20260510184556 84 285 1.0 6.0 0.00 0.00 0.00 11 1024.6
20260510184007 85 330 1.0 3.0 0.00 0.00 0.00 11 1024.7
20260510183509 84 168 1.0 8.0 0.00 0.00 0.00 13 1024.6
20260510183033 84 143 2.0 8.0 0.00 0.00 0.00 11 1024.6
20260510182528 84 99 3.0 7.0 0.00 0.00 0.00 12 1024.6
20260510182032 83 216 2.0 5.0 0.00 0.00 0.00 13 1024.6
20260510181540 82 118 1.0 5.0 0.00 0.00 0.00 12 1024.6
20260510181049 82 201 3.0 6.0 0.00 0.00 0.00 13 1024.8
20260510180548 82 91 1.0 6.0 0.00 0.00 0.00 15 1024.9
20260510180044 81 118 3.0 6.0 0.00 0.00 0.00 13 1025.0
20260510175533 82 29 2.0 8.0 0.00 0.00 0.00 15 1024.9
20260510175042 82 308 1.0 11.0 0.00 0.00 0.00 15 1024.9
20260510174552 83 295 4.0 11.0 0.00 0.00 0.00 15 1024.9
20260510174059 83 354 0.0 5.0 0.00 0.00 0.00 15 1024.9
20260510173502 83 273 2.0 5.0 0.00 0.00 0.00 14 1025.0
20260510173041 82 79 1.0 10.0 0.00 0.00 0.00 15 1025.0
20260510172548 82 95 1.0 10.0 0.00 0.00 0.00 16 1025.1
20260510172051 82 71 1.0 8.0 0.00 0.00 0.00 15 1025.0
20260510171529 81 79 1.0 8.0 0.00 0.00 0.00 18 1025.2
20260510171034 81 171 1.0 5.0 0.00 0.00 0.00 17 1025.2
20260510170541 81 314 0.0 5.0 0.00 0.00 0.00 17 1025.2
20260510170100 82 333 1.0 4.0 0.00 0.00 0.00 16 1025.1
20260510165554 82 289 0.0 3.0 0.00 0.00 0.00 17 1025.0
20260510165002 82 278 1.0 3.0 0.00 0.00 0.00 20 1025.0
20260510164533 81 101 0.0 6.0 0.00 0.00 0.00 17 1025.0
20260510164018 80 56 1.0 6.0 0.00 0.00 0.00 18 1024.9
20260510163527 79 191 0.0 5.0 0.00 0.00 0.00 19 1024.9
20260510163040 78 209 1.0 7.0 0.00 0.00 0.00 19 1024.8
20260510162539 78 316 3.0 7.0 0.00 0.00 0.00 18 1024.8
20260510162046 78 122 3.0 7.0 0.00 0.00 0.00 20 1024.7
20260510161551 77 157 3.0 9.0 0.00 0.00 0.00 19 1024.7
20260510161056 78 131 2.0 9.0 0.00 0.00 0.00 20 1024.7
20260510160558 78 199 3.0 6.0 0.00 0.00 0.00 20 1024.8
20260510160046 78 180 2.0 7.0 0.00 0.00 0.00 21 1024.8
20260510155542 77 127 1.0 8.0 0.00 0.00 0.00 22 1024.9
20260510155050 77 127 3.0 7.0 0.00 0.00 0.00 22 1024.9
20260510154522 76 132 2.0 5.0 0.00 0.00 0.00 22 1025.0
20260510154029 76 151 3.0 5.0 0.00 0.00 0.00 23 1025.1
20260510153538 76 141 1.0 7.0 0.00 0.00 0.00 24 1025.0
20260510153057 76 116 2.0 7.0 0.00 0.00 0.00 25 1025.0
20260510152508 76 128 2.0 5.0 0.00 0.00 0.00 23 1024.9
20260510152010 77 152 1.0 4.0 0.00 0.00 0.00 23 1025.0
20260510151531 77 179 0.0 3.0 0.00 0.00 0.00 23 1024.9
20260510151034 77 156 0.0 3.0 0.00 0.00 0.00 23 1024.8
20260510150542 76 83 0.0 3.0 0.00 0.00 0.00 25 1024.8
20260510150055 76 111 0.0 3.0 0.00 0.00 0.00 24 1024.9
20260510145554 75 64 0.0 2.0 0.00 0.00 0.00 25 1024.9
20260510145505 75 68 0.0 2.0 0.00 0.00 0.00 25 1024.9
20260510145100 74 27 0.0 2.0 0.00 0.00 0.00 25 1024.9
20260510144512 73 27 1.0 4.0 0.00 0.00 0.00 25 1024.8
20260510144021 72 27 2.0 4.0 0.00 0.00 0.00 27 1024.8
20260510143524 72 359 2.0 3.0 0.00 0.00 0.00 29 1024.8
20260510143044 71 345 0.0 2.0 0.00 0.00 0.00 28 1024.8
20260510142546 70 345 0.0 2.0 0.00 0.00 0.00 30 1024.8
20260510142046 69 345 0.0 2.0 0.00 0.00 0.00 31 1024.8
20260510141528 68 341 0.0 3.0 0.00 0.00 0.00 31 1024.9
20260510141032 67 341 1.0 3.0 0.00 0.00 0.00 36 1024.9
20260510140541 67 53 0.0 1.0 0.00 0.00 0.00 35 1024.8
20260510140057 65 53 0.0 0.0 0.00 0.00 0.00 35 1024.7
20260510135506 64 53 0.0 0.0 0.00 0.00 0.00 35 1024.7
20260510135014 63 53 0.0 3.0 0.00 0.00 0.00 36 1024.7
20260510134534 62 53 0.0 3.0 0.00 0.00 0.00 38 1024.8
20260510134033 61 73 0.0 1.0 0.00 0.00 0.00 42 1024.8
20260510133546 60 81 0.0 1.0 0.00 0.00 0.00 41 1024.8
20260510133103 60 81 0.0 1.0 0.00 0.00 0.00 41 1024.8
20260510132506 60 81 0.0 2.0 0.00 0.00 0.00 41 1024.7
20260510132006 61 81 0.0 2.0 0.00 0.00 0.00 39 1024.6
20260510131516 61 81 0.0 2.0 0.00 0.00 0.00 37 1024.6
20260510131022 62 81 0.0 1.0 0.00 0.00 0.00 35 1024.5
20260510130528 62 81 0.0 2.0 0.00 0.00 0.00 34 1024.1
20260510130039 62 81 0.0 2.0 0.00 0.00 0.00 34 1024.0
20260510125553 62 81 0.0 2.0 0.00 0.00 0.00 34 1024.0
20260510125053 62 81 0.0 2.0 0.00 0.00 0.00 34 1024.0
20260510124512 62 81 0.0 3.0 0.00 0.00 0.00 33 1024.0
20260510124016 63 304 0.0 3.0 0.00 0.00 0.00 34 1024.0
20260510123518 63 305 1.0 3.0 0.00 0.00 0.00 32 1024.1
20260510123024 64 316 0.0 3.0 0.00 0.00 0.00 31 1024.0
20260510122527 64 81 0.0 2.0 0.00 0.00 0.00 32 1024.0
20260510122036 65 79 0.0 2.0 0.00 0.00 0.00 31 1023.9
20260510121514 66 79 0.0 2.0 0.00 0.00 0.00 30 1023.9
20260510121016 66 79 0.0 0.0 0.00 0.00 0.00 28 1023.7
20260510120529 66 79 0.0 1.0 0.00 0.00 0.00 28 1023.6
20260510120059 67 79 0.0 1.0 0.00 0.00 0.00 28 1023.5
20260510115512 67 84 0.0 1.0 0.00 0.00 0.00 27 1023.5
20260510115012 67 84 0.0 4.0 0.00 0.00 0.00 27 1023.5
20260510114530 67 85 1.0 4.0 0.00 0.00 0.00 27 1023.6
20260510114035 67 75 1.0 4.0 0.00 0.00 0.00 27 1023.6
20260510113548 67 101 0.0 4.0 0.00 0.00 0.00 27 1023.7
20260510113107 67 107 1.0 3.0 0.00 0.00 0.00 27 1023.7
20260510112512 67 110 0.0 3.0 0.00 0.00 0.00 26 1023.7
20260510112013 67 134 0.0 3.0 0.00 0.00 0.00 26 1023.7
20260510111532 67 196 0.0 2.0 0.00 0.00 0.00 26 1023.9
20260510111031 68 196 0.0 2.0 0.00 0.00 0.00 25 1024.1
20260510110538 68 196 0.0 1.0 0.00 0.00 0.00 24 1024.3
20260510110019 68 196 0.0 4.0 0.00 0.00 0.00 23 1024.5
20260510105526 69 196 0.0 6.0 0.00 0.00 0.00 22 1024.5
20260510105036 69 195 2.0 6.0 0.00 0.00 0.00 23 1024.5
20260510104508 69 81 0.0 4.0 0.00 0.00 0.00 22 1024.6
20260510104018 69 30 1.0 5.0 0.00 0.00 0.00 23 1024.7
20260510103524 70 233 0.0 3.0 0.00 0.00 0.00 22 1024.9
20260510103038 70 174 0.0 3.0 0.00 0.00 0.00 21 1024.7
20260510102546 71 174 2.0 3.0 0.00 0.00 0.00 21 1024.7
20260510102049 71 299 0.0 8.0 0.00 0.00 0.00 20 1024.7
20260510101528 72 299 2.0 9.0 0.00 0.00 0.00 20 1024.7
20260510101029 72 306 5.0 13.0 0.00 0.00 0.00 19 1024.5
20260510100539 72 285 8.0 13.0 0.00 0.00 0.00 19 1024.4
20260510100010 72 278 8.0 13.0 0.00 0.00 0.00 19 1024.2
20260510095520 72 289 6.0 12.0 0.00 0.00 0.00 19 1024.1
20260510095027 72 288 5.0 14.0 0.00 0.00 0.00 19 1024.1
20260510094533 72 268 5.0 14.0 0.00 0.00 0.00 19 1024.0
20260510094043 73 303 9.0 15.0 0.00 0.00 0.00 19 1023.9
20260510093548 72 296 6.0 14.0 0.00 0.00 0.00 19 1023.9
20260510093025 72 320 6.0 16.0 0.00 0.00 0.00 19 1023.8
20260510092531 72 311 8.0 19.0 0.00 0.00 0.00 19 1023.9
20260510092042 73 291 11.0 19.0 0.00 0.00 0.00 18 1023.7
20260510091554 73 273 11.0 21.0 0.00 0.00 0.00 18 1023.6
20260510091053 72 312 13.0 21.0 0.00 0.00 0.00 18 1023.6
20260510090555 71 294 14.0 21.0 0.00 0.00 0.00 19 1023.5
20260510090034 71 300 9.0 18.0 0.00 0.00 0.00 19 1023.6
20260510085539 72 258 6.0 15.0 0.00 0.00 0.00 19 1023.5
20260510085050 72 289 8.0 17.0 0.00 0.00 0.00 18 1023.7
20260510084601 72 278 10.0 18.0 0.00 0.00 0.00 18 1023.6
20260510084502 72 293 10.0 18.0 0.00 0.00 0.00 18 1023.6
20260510084004 71 281 12.0 18.0 0.00 0.00 0.00 19 1023.4
20260510083520 71 301 12.0 18.0 0.00 0.00 0.00 19 1023.3
20260510083050 71 291 10.0 18.0 0.00 0.00 0.00 19 1023.3
20260510082503 71 295 11.0 18.0 0.00 0.00 0.00 19 1023.2
20260510082007 71 341 9.0 16.0 0.00 0.00 0.00 19 1023.3
20260510081531 71 271 9.0 16.0 0.00 0.00 0.00 19 1023.2
20260510081024 71 312 6.0 15.0 0.00 0.00 0.00 19 1023.2
20260510080527 71 294 9.0 14.0 0.00 0.00 0.00 19 1023.3
20260510080059 71 300 10.0 14.0 0.00 0.00 0.00 19 1023.4
20260510075547 70 294 9.0 14.0 0.00 0.00 0.00 19 1023.3
20260510075055 70 305 8.0 14.0 0.00 0.00 0.00 19 1023.4
20260510074511 68 297 7.0 13.0 0.00 0.00 0.00 21 1023.4
20260510074014 66 305 6.0 9.0 0.00 0.00 0.00 22 1023.5
20260510073527 64 299 1.0 6.0 0.00 0.00 0.00 24 1023.4
20260510073052 64 247 0.0 2.0 0.00 0.00 0.00 24 1023.5
20260510072502 64 247 0.0 3.0 0.00 0.00 0.00 24 1023.4
20260510072007 64 247 0.0 3.0 0.00 0.00 0.00 25 1023.4
20260510071537 64 154 0.0 3.0 0.00 0.00 0.00 25 1023.4
20260510071031 64 154 0.0 2.0 0.00 0.00 0.00 25 1023.6
20260510070541 64 154 0.0 2.0 0.00 0.00 0.00 24 1023.5
20260510070055 64 154 0.0 2.0 0.00 0.00 0.00 24 1023.5
20260510065603 65 52 0.0 4.0 0.00 0.00 0.00 23 1023.4
20260510065059 65 18 0.0 4.0 0.00 0.00 0.00 23 1023.3
20260510064536 65 72 0.0 1.0 0.00 0.00 0.00 22 1023.3
20260510064015 65 46 0.0 3.0 0.00 0.00 0.00 22 1023.1
20260510063522 65 46 0.0 5.0 0.00 0.00 0.00 21 1023.1
20260510063046 65 31 0.0 5.0 0.00 0.00 0.00 21 1023.1
20260510062540 65 53 0.0 2.0 0.00 0.00 0.00 21 1023.1
20260510062047 66 74 0.0 2.0 0.00 0.00 0.00 20 1022.9
20260510061555 66 93 0.0 2.0 0.00 0.00 0.00 20 1022.8
20260510061001 67 16 0.0 1.0 0.00 0.00 0.00 19 1022.7
20260510060500 68 314 0.0 4.0 0.00 0.00 0.00 18 1022.6
20260510060030 68 314 0.0 5.0 0.00 0.00 0.00 18 1022.5
20260510055518 68 343 1.0 6.0 0.00 0.00 0.00 17 1022.4
20260510055029 69 284 2.0 6.0 0.00 0.00 0.00 17 1022.4
20260510054534 69 295 3.0 8.0 0.00 0.00 0.00 17 1022.4
20260510054046 69 316 2.0 8.0 0.00 0.00 0.00 17 1022.2
20260510053549 69 316 1.0 6.0 0.00 0.00 0.00 17 1022.2
20260510053028 69 349 2.0 8.0 0.00 0.00 0.00 17 1022.1
20260510052532 68 322 3.0 8.0 0.00 0.00 0.00 17 1022.1
20260510052044 68 343 1.0 5.0 0.00 0.00 0.00 17 1022.0
20260510051609 69 35 0.0 3.0 0.00 0.00 0.00 17 1022.1
20260510051006 70 335 0.0 5.0 0.00 0.00 0.00 17 1022.0
20260510050510 70 335 2.0 8.0 0.00 0.00 0.00 16 1022.0
20260510050028 69 320 3.0 8.0 0.00 0.00 0.00 16 1022.0
20260510045530 68 322 3.0 6.0 0.00 0.00 0.00 17 1021.9
20260510045040 68 312 2.0 5.0 0.00 0.00 0.00 18 1022.0
20260510044553 67 318 1.0 4.0 0.00 0.00 0.00 19 1021.9
20260510044057 67 329 1.0 3.0 0.00 0.00 0.00 19 1021.8
20260510043504 68 331 0.0 3.0 0.00 0.00 0.00 20 1021.7
20260510043038 68 316 0.0 3.0 0.00 0.00 0.00 19 1021.6
20260510042545 68 329 0.0 3.0 0.00 0.00 0.00 19 1021.5
20260510042054 68 4 0.0 4.0 0.00 0.00 0.00 19 1021.6
20260510041506 68 342 0.0 3.0 0.00 0.00 0.00 20 1021.6
20260510041015 69 21 1.0 3.0 0.00 0.00 0.00 20 1021.5
20260510040518 69 289 0.0 2.0 0.00 0.00 0.00 18 1021.3
20260510040032 70 289 0.0 2.0 0.00 0.00 0.00 17 1021.2
20260510035536 70 289 0.0 2.0 0.00 0.00 0.00 18 1021.2
20260510035044 71 289 0.0 1.0 0.00 0.00 0.00 18 1021.0
20260510034603 71 289 0.0 2.0 0.00 0.00 0.00 17 1021.0
20260510034011 73 289 0.0 2.0 0.00 0.00 0.00 18 1021.0
20260510033515 74 289 0.0 1.0 0.00 0.00 0.00 17 1021.0
20260510033026 74 289 0.0 2.0 0.00 0.00 0.00 16 1020.9
20260510032532 76 289 0.0 2.0 0.00 0.00 0.00 15 1020.9
20260510032043 77 26 0.0 1.0 0.00 0.00 0.00 14 1020.7
20260510031556 78 26 0.0 4.0 0.00 0.00 0.00 13 1020.7
20260510031057 79 27 1.0 7.0 0.00 0.00 0.00 13 1020.8
20260510030511 80 302 4.0 7.0 0.00 0.00 0.00 11 1020.6
20260510030054 80 283 4.0 7.0 0.00 0.00 0.00 11 1020.6
20260510025554 80 296 3.0 8.0 0.00 0.00 0.00 11 1020.4
20260510025003 81 314 2.0 9.0 0.00 0.00 0.00 11 1020.4
20260510024516 81 298 3.0 9.0 0.00 0.00 0.00 11 1020.3
20260510024025 81 302 5.0 10.0 0.00 0.00 0.00 11 1020.3
20260510023526 81 278 6.0 11.0 0.00 0.00 0.00 11 1020.1
20260510023046 81 280 6.0 11.0 0.00 0.00 0.00 10 1020.1
20260510022550 82 294 4.0 11.0 0.00 0.00 0.00 10 1020.1
20260510022100 82 284 6.0 13.0 0.00 0.00 0.00 10 1020.1
20260510021513 82 280 7.0 16.0 0.00 0.00 0.00 10 1020.1
20260510021017 82 299 8.0 16.0 0.00 0.00 0.00 10 1019.9
20260510020524 82 270 4.0 13.0 0.00 0.00 0.00 11 1019.9
20260510020038 82 282 5.0 13.0 0.00 0.00 0.00 11 1020.0
20260510015543 81 280 5.0 8.0 0.00 0.00 0.00 11 1020.0
20260510015052 82 286 1.0 7.0 0.00 0.00 0.00 12 1020.0
20260510014515 82 282 1.0 7.0 0.00 0.00 0.00 11 1019.9
20260510014018 83 289 0.0 5.0 0.00 0.00 0.00 11 1019.7
20260510013526 83 289 2.0 5.0 0.00 0.00 0.00 10 1019.6
20260510013104 84 297 2.0 11.0 0.00 0.00 0.00 10 1019.6
20260510013002 84 301 2.0 11.0 0.00 0.00 0.00 10 1019.5
20260510012511 84 259 5.0 11.0 0.00 0.00 0.00 10 1019.5
20260510012013 84 288 6.0 11.0 0.00 0.00 0.00 10 1019.5
20260510011530 85 286 4.0 15.0 0.00 0.00 0.00 10 1019.5
20260510011042 85 297 5.0 15.0 0.00 0.00 0.00 10 1019.5
20260510010543 85 284 5.0 14.0 0.00 0.00 0.00 10 1019.5
20260510010022 85 208 5.0 14.0 0.00 0.00 0.00 10 1019.5
20260510005530 84 317 6.0 12.0 0.00 0.00 0.00 10 1019.5
20260510005037 85 190 4.0 15.0 0.00 0.00 0.00 10 1019.5
20260510004547 85 289 8.0 18.0 0.00 0.00 0.00 10 1019.6
20260510004055 85 223 9.0 18.0 0.00 0.00 0.00 10 1019.6
20260510003521 86 325 7.0 19.0 0.00 0.00 0.00 10 1019.6
20260510003056 86 291 9.0 19.0 0.00 0.00 0.00 9 1019.7
20260510002602 87 262 7.0 15.0 0.00 0.00 0.00 9 1019.5
20260510002503 87 288 5.0 14.0 0.00 0.00 0.00 9 1019.4
20260510002003 88 252 8.0 17.0 0.00 0.00 0.00 9 1019.4
20260510001517 88 231 7.0 17.0 0.00 0.00 0.00 9 1019.3
20260510001026 88 241 8.0 23.0 0.00 0.00 0.00 9 1019.3
20260510000540 87 272 10.0 23.0 0.00 0.00 0.00 10 1019.2
20260510000025 87 299 12.0 17.0 0.00 0.00 0.00 9 1019.4
20260509235523 87 285 9.0 15.0 0.00 0.00 0.00 9 1019.2
20260509235033 87 293 6.0 12.0 0.00 0.00 0.00 9 1019.3
20260509234559 87 314 4.0 12.0 0.00 0.00 0.00 11 1019.3
20260509234058 87 339 3.0 11.0 0.00 0.00 0.00 10 1019.3
20260509233503 87 305 4.0 11.0 0.00 0.00 0.00 10 1019.3
20260509233050 87 291 6.0 11.0 0.00 0.00 0.00 10 1019.3
20260509232549 87 325 2.0 4.0 0.00 0.00 0.00 12 1019.5
20260509232100 86 290 0.0 4.0 0.00 0.00 0.00 11 1019.4
20260509231513 86 327 1.0 8.0 0.00 0.00 0.00 11 1019.5
20260509231023 86 293 2.0 10.0 0.00 0.00 0.00 10 1019.5
20260509230525 85 289 6.0 10.0 0.00 0.00 0.00 9 1019.7
20260509230037 85 296 4.0 9.0 0.00 0.00 0.00 11 1019.6
20260509225541 86 299 4.0 10.0 0.00 0.00 0.00 11 1019.6